map of MCP home
Great Circle Mapper logo
MCP - Airport
Location
City:  Macapá, Pará, Brazil
ICAO / IATA:SBMQ / MCP

Details
Type:Airport (Aerodrome, Airfield)
Use:Public/Civil, International (customs port of entry)
Latitude:0°03'02"N (0.050664)
Longitude:51°04'20"W (-51.072177)
Datum:WGS 1984
Elevation:56 ft (17 m)
Runways:1
Longest:6890 × 148 ft (2100 × 45 m), paved

Time
Time Zone:UTC-3
Local Time:

Weather
METAR:SBMQ 010200Z 04008KT 9999 SCT020 28/24 Q1012
TAF:SBMQ 311600Z 3118/0118 06010KT 9999 SCT025 TN25/0107Z TX34/0117Z
BECMG 3122/3124 06008KT CAVOK
BECMG 0102/0104 02003KT 9999 SCT016
BECMG 01 10/0112 06008KT FEW020
BECMG 0113/0115 10015KT SCT020
RMK PDZ

Related Locations
Nearby:
Farthest:GEB: 12414 mi / 19979 km
Gebe, Gebe Island, Maluku, ID

Find:

   beyond  
but within

Other Information
Maps:
NOTAMs:
Links:
Sources:

  
flag of Brazil
flag of Pará
  

Sectional Chart

Flight Planning
at skyvector.com

Satellite Image

Google Maps Satellite View

 

Copyright © 2004-2014 Karl L. Swartz. All rights reserved.
The Great Circle Mapper name and logo are trademarks of the Great Circle Mapper.
All other trademarks mentioned herein belong to their respective owners.
Please see credits for attibutions and further copyright information.

  Follow gcmap on Facebook Follow gcmap on Twitter

hCard Microformat

Geo Microformat